Corona, CA

4:15 AM PDT on August 27, 2016 (GMT -0700)
Corona Municipal

Weather History for KAJO - July, 2013

Change the Weather History Date:

Tuesday, July 2, 2013

  Actual Average (KONT) Record (KONT)
Temperature  
Mean Temperature 76 °F 76 °F  
Max Temperature 88 °F 90 °F 101 °F (2001)
Min Temperature 63 °F 62 °F 58 °F (2004)
Degree Days  
Heating Degree Days 0 0  
Month to date heating degree days 0  
Since 1 June heating degree days 5  
Since 1 July heating degree days 0  
Cooling Degree Days 10 11  
Month to date cooling degree days 22  
Year to date cooling degree days 411  
Since 1 June cooling degree days 245  
Growing Degree Days 26 (Base 50)    
Moisture  
Dew Point 62 °F    
Average Humidity 66    
Maximum Humidity 93    
Minimum Humidity 44    
Precipitation  
Precipitation 0.00 in 0.01 in 0.00 in (2016)
Month to date precipitation 0.01  
Year to date precipitation 10.39  
Sea Level Pressure  
Sea Level Pressure 29.91 in    
Wind  
Wind Speed 0 mph (North)    
Max Wind Speed 0 mph    
Max Gust Speed -    
Visibility 10 miles    
Events      
T = Trace of Precipitation, MM = Missing Value Source: NWS Daily Summary

Daily Weather History Graph

Daily Weather History Graph

Search for Another Location

Airport or City:

Trip Planner

Search our weather history database for the weather conditions in past years. The results will help you decide how hot, cold, wet, or windy it might be!

Date:

Astronomy

Jul. 02, 2013 Rise Set
Actual Time 5:43 AM PDT 8:05 PM PDT
Civil Twilight 5:14 AM PDT 8:34 PM PDT
Nautical Twilight 4:39 AM PDT 9:09 PM PDT
Astronomical Twilight 4:00 AM PDT 9:48 PM PDT
Moon 1:41 AM PDT (7/2) 3:29 PM PDT (7/2)
Length of Visible Light 15h 19m
Length of Day
14h 21m
Waning Crescent, 25% of the Moon is Illuminated
Jul 2
Waning Crescent
Jul 8
New
Jul 15
First Quarter
Jul 22
Full
Jul 29
Last Quarter

Hourly Weather History & Observations

Time (PDT) Temp. Heat Index Dew Point Humidity Pressure Visibility Wind Dir Wind Speed Gust Speed Precip Events Conditions
12:56 AM 64.9 °F - 59.0 °F 81% 29.88 in 10.0 mi Calm Calm - N/A   Clear
1:56 AM 65.8 °F - 59.0 °F 79% 29.87 in 10.0 mi Calm Calm - N/A   Clear
2:56 AM 68.0 °F - 61.9 °F 81% 29.87 in 10.0 mi Calm Calm - N/A   Clear
3:56 AM 68.0 °F - 61.9 °F 81% 29.88 in 10.0 mi Calm Calm - N/A   Clear
4:56 AM 66.9 °F - 63.0 °F 87% 29.88 in 10.0 mi Calm Calm - N/A   Clear
5:56 AM 63.9 °F - 61.0 °F 90% 29.91 in 10.0 mi Calm Calm - N/A   Clear
6:56 AM 64.9 °F - 63.0 °F 93% 29.91 in 10.0 mi Calm Calm - N/A   Clear
7:56 AM 72.9 °F - 61.9 °F 68% 29.93 in 10.0 mi Calm Calm - N/A   Clear
8:56 AM 77.0 °F - 61.9 °F 59% 29.93 in 10.0 mi Calm Calm - N/A   Clear
9:56 AM 83.8 °F 84.3 °F 61.9 °F 47% 29.93 in 10.0 mi Calm Calm - N/A   Partly Cloudy
10:56 AM 84.9 °F 86.1 °F 63.9 °F 49% 29.95 in 10.0 mi Calm Calm - N/A   Clear
11:56 AM 88.9 °F 90.7 °F 64.9 °F 45% 29.95 in 10.0 mi Calm Calm - N/A   Partly Cloudy
12:56 PM 88.0 °F 89.0 °F 63.9 °F 44% 29.94 in 10.0 mi Calm Calm - N/A   Partly Cloudy
1:56 PM 88.0 °F 89.0 °F 63.9 °F 44% 29.91 in 10.0 mi Calm Calm - N/A   Clear
2:56 PM 83.8 °F 84.7 °F 63.0 °F 49% 29.90 in 10.0 mi Calm Calm - N/A   Clear
3:56 PM 83.8 °F 84.3 °F 61.9 °F 47% 29.89 in 10.0 mi Calm Calm - N/A   Clear
4:56 PM 79.9 °F - 61.9 °F 54% 29.89 in 10.0 mi Calm Calm - N/A   Clear
5:56 PM 79.9 °F - 63.0 °F 56% 29.89 in 10.0 mi Calm Calm - N/A   Clear
6:56 PM 75.9 °F - 61.9 °F 62% 29.92 in 10.0 mi Calm Calm - N/A   Clear
7:56 PM 73.9 °F - 61.9 °F 66% 29.92 in 10.0 mi Calm Calm - N/A   Clear
8:56 PM 72.0 °F - 61.0 °F 68% 29.92 in 10.0 mi Calm Calm - N/A   Clear
9:56 PM 66.9 °F - 59.0 °F 76% 29.92 in 10.0 mi Calm Calm - N/A   Clear
10:56 PM 65.8 °F - 59.0 °F 79% 29.90 in 10.0 mi Calm Calm - N/A   Clear
11:56 PM 65.8 °F - 57.9 °F 76% 29.89 in 10.0 mi Calm Calm - N/A   Clear